Cloud_Cover
100 93 87 100 100 100 9 98 74 13 0 0 0 0 0 0 0 0 1 5 9 60 64 6 74 100 100 24 55 13 40 6 11 47 73 12 6 22 16 95 38 60 36
88 98 20 94 3 1 100 20 0 6 5 0 3 0 2 4 4 5 3 2 13 81 6 99 12 6 7 6 6 5 5 98 100 91 100 100 95 51 14 10 5 63 100
100 97 25 42 70 11 0 0 0 0 0 0 1 6 0 4 1 9 4 5 3 75 4 28 5 5 43 53 10 0 5 96 100 100 100 100 100 100 100 75 5 14 100
68 67 2 0 0 0 0 0 0 0 0 0 0 6 6 0 0 0 3 0 0 5 6 2 4 5 28 5 7 5 5 69 100 100 100 100 100 100 100 100 5 29 100
0 0 0 0 0 0 0 0 3 3 0 4 1 1 1 0 8 5 7 10 3 2 4 5 5 78 9 5 4 5 91 100 100 100 100 100 100 100 100 100 100 50 26
0 0 0 0 0 0 0 0 6 1 0 0 5 0 2 5 0 0 0 0 0 0 0 1 5 5 5 5 24 99 100 100 100 100 100 92 90 6 100 100 100 23 57
0 4 0 0 0 0 0 0 0 0 10 10 22 6 0 0 0 3 19 4 6 3 0 4 4 26 26 24 100 100 100 100 89 100 100 100 100 100 100 100 100 100 100
4 5 4 0 0 0 0 0 2 0 13 82 96 5 0 0 96 96 94 91 100 96 45 5 3 18 10 57 50 100 100 100 100 99 99 95 100 100 100 100 100 100 100
0 0 0 0 0 2 0 1 11 5 83 100 75 1 0 20 79 100 53 78 100 42 10 25 5 0 40 90 27 100 97 100 100 100 100 100 78 98 100 100 100 100 100
0 0 0 0 0 0 0 0 4 5 11 5 35 0 1 95 100 100 92 63 100 87 22 51 20 5 74 5 54 7 97 100 100 100 100 100 100 100 100 98 99 100 100
0 0 0 0 0 0 0 0 4 0 0 0 0 0 0 0 1 6 29 64 100 100 44 4 8 8 21 50 53 97 62 80 56 100 100 100 100 72 20 99 100 98 66
0 0 0 0 0 0 0 0 2 0 10 29 0 0 0 0 0 0 0 5 15 3 2 0 0 3 4 34 100 100 100 100 100 100 100 100 100 100 45 100 100 48 5
0 0 0 0 0 0 0 13 20 18 100 0 0 0 0 0 1 5 5 2 0 0 0 0 0 2 5 5 67 99 100 100 100 100 100 100 94 90 96 100 100 98 14
0 0 0 0 0 0 0 0 0 0 0 0 0 0 22 3 5 0 0 0 0 0 0 0 2 5 5 5 5 18 51 96 100 100 96 38 40 32 73 84 5 7 14
0 0 0 0 0 0 0 0 0 0 0 0 0 0 0 0 0 1 2 0 0 0 2 5 5 12 5 5 5 5 41 53 75 85 44 99 94 100 100 82 98 71 86
0 0 0 0 0 0 0 0 0 0 0 2 0 0 0 0 0 0 0 0 0 2 5 4 80 53 5 5 5 5 13 8 44 70 36 59 93 100 100 96 98 100 98
0 0 0 0 0 0 0 0 0 0 11 41 0 0 0 0 0 0 0 0 0 0 6 17 31 5 12 5 32 53 36 68 100 100 100 100 100 100 90 99 8 5 98
0 0 0 0 0 0 0 0 74 0 1 0 0 0 0 0 0 0 0 0 15 4 23 72 5 8 44 78 47 86 38 47 30 26 25 62 95 26 25 9 8 87 7
0 0 0 0 0 0 0 0 0 0 0 0 0 0 0 2 0 0 0 0 25 39 0 78 72 11 14 60 98 5 59 25 4 9 6 6 9 96 98 58 11 60 31
0 0 0 0 0 0 0 0 0 0 0 0 0 0 59 2 0 0 0 0 0 0 4 15 70 100 92 54 58 80 36 32 100 95 40 42 26 87 100 99 99 100 99
0 0 0 0 0 0 0 0 0 0 0 0 0 0 0 0 0 0 0 0 0 0 4 5 97 5 5 45 97 23 7 100 100 98 100 14 100 100 94 100 100 88 6
0 0 0 0 0 0 0 0 0 0 0 0 0 0 0 0 0 0 0 0 0 0 4 5 45 91 14 5 82 99 31 82 76 72 95 100 100 100 100 100 100 10 20
0 0 0 0 0 0 0 0 0 0 0 0 0 0 0 0 0 0 0 0 0 5 5 49 71 16 99 100 91 100 100 83 4 5 6 87 100 100 100 100 100 94 34
0 0 0 0 0 0 0 0 0 0 0 0 0 0 0 0 0 0 0 0 5 5 29 29 65 72 65 14 99 100 100 100 100 100 100 100 100 100 100 100 100 52 0
0 0 0 0 0 0 0 0 0 0 0 0 0 0 0 0 0 0 0 0 70 65 100 100 100 12 72 93 100 100 100 100 100 100 100 100 100 100 100 84 16 0 0
0 0 0 0 0 0 0 0 0 0 0 0 0 0 0 0 0 0 0 4 62 100 100 100 100 100 100 100 100 100 100 100 100 100 100 100 100 100 100 0 0 0 70